Location: Brotuna
(46.2000°N, 22.6000°E)
Time: 11:05:40
(UTC+00:00)

NOSS 3-4 (A) - Pass Details

Date: 09 April 2020
Orbit: 895 x 1317 km, 63.4° (Epoch: 21 May)

Event Time Altitude Azimuth Distance (km) Brightness Sun altitude
Rises 17:36:36 0° 321° (NW) 3,808 7.7 -5.4°
Reaches altitude 10° 17:39:08 10° 323° (NW) 2,909 7.0 -5.8°
Maximum altitude 17:46:06 78° 50° (NE) 1,183 3.9 -6.9°
Drops below altitude 10° 17:53:49 10° 137° (SE) 3,199 5.6 -8.2°
Enters shadow 17:55:04 - 138° (SE) 3,630 5.9 -8.4°
